Regional Weather Roundup
Issued by NWS Newport/Morehead, NC

Current Version | Previous Version | Text Only | Print | Product List | Glossary Off
Versions: 1 2 3 4 5 6 7 8 9 10 11 12 13 14 15 16 17 18 19 20 21 22 23 24 25 26 27 28 29 30 31 32 33 34 35 36 37 38 39 40 41 42 43 44 45 46 47 48 49 50
000 ASUS42 KMHX 250125 RWRMHX WEATHER ROUNDUP FOR EASTERN NORTH CAROLINA NATIONAL WEATHER SERVICE NEWPORT/MOREHEAD CITY NC 900 PM EDT SUN JUL 24 2016 NOTE: "FAIR" INDICATES FEW OR NO CLOUDS BELOW 12,000 FEET WITH NO SIGNIFICANT WEATHER AND/OR OBSTRUCTIONS TO VISIBILITY NCZ015>017-031-032-045>047-102-103-250200- NORTH COAST CITY SKY/WX TMP DP RH WIND PRES REMARKS EDENTON CLEAR 87 78 74 S7 30.01R HX 101 ELIZABETH CITY PTCLDY 86 77 74 S6 30.00R KITTY HAWK CLEAR 85 77 78 S6 30.00R MANTEO N/A 85 81 87 SW14 30.01S $$ NCZ045>047-081-094-103-104-250200- CENTRAL COAST CITY SKY/WX TMP DP RH WIND PRES REMARKS FRISCO CLEAR 84 78 82 SW9 30.03R $$ NCZ095-097-098-100-101-250200- SOUTHERN COAST CITY SKY/WX TMP DP RH WIND PRES REMARKS BEAUFORT PTCLDY 84 78 82 SW10 30.03R CEDAR ISLAND NOT AVBL JACKSONVILLE PTCLDY 82 76 81 S6 30.02R PINEY ISLAND NOT AVBL WILMINGTON CLEAR 83 74 74 S6 30.03R $$ NCZ011>013-027>030-043-044-078>080-089-090>093-098-250200- COASTAL PLAIN CITY SKY/WX TMP DP RH WIND PRES REMARKS AHOSKIE CLEAR 80 78 94 CALM 30.01R CLINTON CLEAR 83 79 86 CALM 30.02R ELIZABETHTOWN CLEAR 85 79 83 CALM 30.02R GOLDSBORO CLEAR 86 79 79 S6 30.00R GREENVILLE CLEAR 86 79 79 S9 30.03R HAVELOCK CLEAR 82 75 79 S6 30.04R KENANSVILLE NOT AVBL KINSTON CLEAR 86 75 70 S6 30.02R NEW BERN CLEAR 81 75 82 S6 30.03R RICHLANDS CLEAR 82 76 81 S5 30.03R ROCKY MOUNT CLEAR 80 77 90 CALM 30.00R WASHINGTON CLEAR 84 76 76 S6 30.01R WHITEVILLE PTCLDY 83 78 82 CALM 30.02R $$ AMZ130-135-150-152-154-156-158-170-250-252-270-ANZ085-086-088-633-658-670-250200- MARINE OBSERVATIONS STATION/POSITION TIME TEMP WIND PRES WAVE SWELL AIR SEA DIR/SP/G HT/PER HT/PER (UTC) (F) (DEG/KT/KT) (MB) (FT/S) (FT/S) CHESAPEAKE LIGHT NOT AVBL 64 E VA BEACH 0050 83 81 200/ 12/ 14 1015.6 2/ 9 2/ 9 DUCK 0000 89 71 N/A 2 E DUCK 0011 79 N/A 1/ 8 OREGON INLET 0000 86 87 N/A 13E OREGON INLT 0100 83 N/A 2/ 8 2/ 8 HATTERAS CG 0000 83 84 N/A DIAMOND BUOY 0050 85 85 230/ 12/ 14 1016.8 2/ 8 2/ 8 CAPE LOOKOUT 0100 84 210/ 10/ 13 1016.9 BEAUFORT LAB 0000 84 85 N/A 30 SE NEW RVR IN 0108 85 85 210/ 10/ 14 1017.2 30 SE NEW RVR IN 0025 85 N/A 3/ 8 27 SE WRIGHTSVLE 0108 84 85 210/ 12/ 16 1017.4 5 SE WRIGHTSVLE 0108 84 84 220/ 12/ 16 1017.9 225 S CAPE HAT 0050 84 85 200/ 2/ 4 1018.7 2/ 8 2/ 8 41 SE CHARLESTON 0050 85 86 190/ 10/ 12 1016.7 2/ 9 2/ 9 $$

USA.gov is the U.S. government's official web portal to all federal, state and local government web resources and services.